User: anonymous   Login
Location: State Camp
(41.2367°N, 77.7828°W)
Time: 07:41:50
(UTC-05:00)
Language:

ADEOS Rocket - Orbit

View from above orbital plane
View from above orbital plane
View from above satellite
View from above satellite

Ground track
Ground track

The orbit data is extracted from the following two-line orbital elements,

1 24279U 96046C   18016.76711751  .00000020  00000-0  67420-4 0  9995
2 24279  98.7709 299.4905 0300896 104.5215 311.3227 13.47099706 53001
Epoch (UTC): 16 January 2018 18:24:38
Eccentricity: 0.0300896
inclination: 98.7709°
perigee height: 858 km
apogee height: 1307 km
right ascension of ascending node: 299.4905°
argument of perigee: 104.5215°
revolutions per day: 13.47099706
mean anomaly at epoch: 311.3227°
orbit number at epoch: 5300

The dashed part of the orbit path shows where the satellite is in the earth's shadow,  

DLR